Погода в Малиновке

Россия / Хабаровский край     48°28′53″N   135°16′50″E
темп.,
°C
ветер,
м/с
пор.,
м/с
влажн.,
%
обл.,
%
осадки,
мм/ч
давл.,
гПа
погр.,
м
21 апреля, ср
ср2101:00+3зсз714450 0.0 1013527
04:00+1з410470 0.0 1014220
07:00+1зюз37490 0.0 1017167
10:00+7зюз23310 0.0 1018603
13:00+12ссз35230 0.0 10181132
16:00+15сз132214 0.0 10171028
19:00+14в46330 0.0 1018194
22:00+9вюв36440 0.0 102088
22 апреля, чт
чт2201:00+7вюв33470 0.0 102233
04:00+5в33520 0.0 102238
07:00+5в34540 0.0 102373
10:00+12вюв34350 0.0 1023347
13:00+19ююв23242 0.0 1022940
16:00+22ююз34215 0.0 10201512
19:00+20ююв22290 0.0 101920
22:00+16ю333547 0.0 101934
23 апреля, пт
пт2301:00+14ююз3439100 0.0 102044
04:00+12ююз3544100 0.0 101954
07:00+11ю3453100 0.0 102073
10:00+16юз4642100 0.0 1020462
13:00+19юз4635100 0.0 1019876
16:00+20зюз71038100 0.0 10171395
19:00+16з71259100 0.0 1017693
22:00+11зюз81271100 0.3 1017847
24 апреля, сб
сб2401:00+9з71264100 0.0 1018719
04:00+4св6987100 0.1 1019545
07:00+2всв3896100 0.5 1021378
10:00+2сз1298100 1.9 1022253
13:00+6зюз346448 0.1 10201114
16:00+12сз91224100 0.1 10162924
19:00+10сз71128100 0.0 10162129
22:00+7сз5113787 0.1 1016484
25 апреля, вс
вс2501:00+4з4104483 0.0 1014230
04:00+3з4957100 0.1 1011346
07:00+2ссз596851 0.0 1012718
10:00+5ссв584344 0.0 10141628
13:00+7с4528100 0.0 10152601
16:00+9сз252688 0.0 10142495
19:00+9с142493 0.0 10131475
22:00+5зюз11360 0.0 101424